Regional Weather Roundup
Issued by NWS

Home | Current Version | Previous Version | Text Only | Print | Product List | Glossary On
Versions: 1 2 3 4 5 6 7 8 9 10 11 12 13 14 15 16 17 18 19 20 21 22 23 24 25 26 27 28
000
ASUS42 KTBW 311617
RWRFL
FLORIDA REGIONAL WEATHER ROUNDUP
NATIONAL WEATHER SERVICE TAMPA BAY RUSKIN FL
1200 PM EDT TUE MAY 31 2016

NOTE: "FAIR" INDICATES FEW OR NO CLOUDS BELOW 12,000 FEET WITH NO
SIGNIFICANT WEATHER AND/OR OBSTRUCTIONS TO VISIBILITY.

FLZ001>010-012>015-112-114-115-311700-
PANHANDLE FLORIDA

CITY           SKY/WX    TMP DP  RH WIND       PRES   REMARKS
PENSACOLA      SUNNY     88  68  51 VRB3      29.95F
MILTON NAS     MOSUNNY   89  69  51 VRB3      29.95
CRESTVIEW      SUNNY     90  67  46 NW5       29.96F
DUKE FIELD     MOSUNNY   88  65  45 VRB5      29.95F
VALPARAISO     MOSUNNY   85  73  66 S10       29.95F
MARY ESTHER    MOSUNNY   85  73  68 S8        29.94F
TRI COUNTY     FAIR      89  69  51 SE5       29.96S
PANAMA CITY    FAIR      87  69  54 CALM      29.95S
TYNDALL AFB    MOSUNNY   84  76  76 W9        29.97S
APALACHICOLA   MOSUNNY   86  77  74 SW7       29.96F HX  97

STATION/POSITION SKY/WX   TEMP    WIND        PRES    WAVE   SWELL
                          AIR SEA DIR/SP/G            HT/PER HT/PER
                          (F)     (DEG/KT/KT) (MB)    (FT/S) (FT/S)
30.1N   87.6W              82 83              1014.0S   1
29.2N   88.2W              81 81  280/  2/  4 1015.0R
28.8N   86.0W              79 83  300/  2/  4 1015.8R   1
PANAMA CITY BEAC           80 78  270/  7/  8 1015.0F
TOWER C                    79     280/  6/  7 1015.7R
28.5N   84.5W              80 81  320/  2/  2 1015.1R   1

$$
FLZ011-016>038-118-127-128-134-139-239-311700-
NORTH FLORIDA

CITY           SKY/WX    TMP DP  RH WIND       PRES   REMARKS
MARIANNA       SUNNY     87  70  56 CALM      29.95S
TALLAHASSEE    MOSUNNY   90  68  48 VRB6      29.95S
PERRY          SUNNY     88  70  53 CALM      29.96F
LIVE OAK       FAIR      90  70  51 SW5       29.97S HX  95
CROSS CITY       N/A     91  67  44 W9        29.96S
LAKE CITY      FAIR      88  70  55 W3        29.96F
GAINESVILLE    SUNNY     88  68  51 MISG      29.96F
WILLISTON      FAIR      90  68  48 NW7       29.97F
PALATKA        FAIR      90  90 100 W8        29.97S HX 129
MAYPORT NAS    MOSUNNY   89  65  44 VRB6      29.94F
JACKSONVILLE   MOSUNNY   89  67  47 W8        29.94S
JAX NAS        MOSUNNY   90  67  46 CALM      29.96S
JAX CECIL      SUNNY     90  68  48 W7        29.96S
FERNANDINA BEA FAIR      88  68  51 CALM      29.93F
ST AUGUSTINE   SUNNY     88  69  53 VRB6      29.97S
PALM COAST     SUNNY     84  73  70 S3        29.97S

STATION/POSITION SKY/WX   TEMP    WIND        PRES    WAVE   SWELL
                          AIR SEA DIR/SP/G            HT/PER HT/PER
                          (F)     (DEG/KT/KT) (MB)    (FT/S) (FT/S)
SHELL POINT                81     200/  3/  4 1013.4
KEATON BEACH               81     270/  6/  8 1014.6F
CEDAR KEY                  82     290/  6/  9 1015.4R
FERNANDINA                 81 81  220/  2/  4 1014.0S
30.7N   81.3W                 79                N/A     2/ 8
MAYPORT                    85 81  280/  7/  9 1014.4R
31.4N   80.9W              76 78   50/  6/  6 1014.2R   2/ 8   2/ 8
ST AUGUSTINE               80 80   90/  8/  8 1015.6R

$$
FLZ040-043>046-052-053-057-058-063-144-311700-
INTERIOR CENTRAL FLORIDA

CITY           SKY/WX    TMP DP  RH WIND       PRES   REMARKS
OCALA          SUNNY     88  70  55 W5        29.98F
THE VILLAGES     N/A     88  72  58 CALM      29.88F
LEESBURG       SUNNY     87  70  56 S7        29.99F
SANFORD        SUNNY     86  69  56 S5        29.98F
ORLANDO EXEC   SUNNY     87  69  54 CALM      29.99S
ORLANDO INTL   MOSUNNY   86  67  52 SW3       29.99S
KISSIMMEE      MOSUNNY   86  70  58 CALM      30.00S
WINTER HAVEN   SUNNY     88  67  49 N3        30.00S
LAKELAND       MOSUNNY   86  70  58 CALM      30.00R
BARTOW         MOSUNNY   84  68  58 VRB5      30.00S
OKEECHOBEE     MOSUNNY   86  70  58 CALM      30.00S

$$
FLZ041-047-054-059-064-141-147-311700-
EAST CENTRAL FLORIDA

CITY           SKY/WX    TMP DP  RH WIND       PRES   REMARKS
ORMOND BEACH   MOSUNNY   84  72  65 W7        29.98S
DAYTONA BEACH  MOSUNNY   87  71  58 W7        29.98S
DELAND           N/A     84  66  54 CALM      29.99F
TITUSVILLE     MOSUNNY   84  75  74 E14       29.99S
CAPE CANAVERAL SUNNY     87  69  56 W7        29.97F
PATRICK AFB    SUNNY     85  71  63 NE5       29.98F
MELBOURNE      MOSUNNY   87  68  52 CALM      29.98F
VERO BEACH     SUNNY     88  65  46 CALM      29.99F
FT PIERCE      SUNNY     86  68  54 CALM      29.99S
STUART         MOSUNNY   88  73  62 NE7       30.00S HX  96

STATION/POSITION SKY/WX   TEMP    WIND        PRES    WAVE   SWELL
                          AIR SEA DIR/SP/G            HT/PER HT/PER
                          (F)     (DEG/KT/KT) (MB)    (FT/S) (FT/S)
28.5N   80.2W              79 80  250/  4/  6 1016.0R
28.9N   78.5W              79 80  200/  8/ 10 1015.7R
TRIDENT PIER               85 82  300/  2/  5 1015.6R
28.4N   80.5W                 83                N/A     2/ 8
27.5N   80.2W                 83                N/A     2/ 8

$$
FLZ050-056-061-142-242-148-248-149-249-151-251-155-255-
160-260-311700-
WEST CENTRAL FLORIDA

CITY           SKY/WX    TMP DP  RH WIND       PRES   REMARKS
CRYSTAL RIVER  FAIR      86  68  54 NW3       29.98S
INVERNESS      FAIR      88  70  55 N3        29.98S
BROOKSVILLE    SUNNY     88  66  48 VRB3      29.99S
ZEPHYRHILLS    PTSUNNY   86  64  47 CALM      30.00S
CLEARWATER AIR FAIR      82  68  61 NW5       29.99R
ST PETE CLEARW SUNNY     88  69  53 N6        29.99R
TAMPA INTL     MOSUNNY   85  71  63 SW9       29.99S
TAMPA EXEC     SUNNY     90  68  48 CALM      29.99S
PLANT CITY     MOSUNNY   88  72  58 CALM      30.01S
MACDILL AFB    SUNNY     90  73  58 VRB3      29.99S HX  98
PETER O KNIGHT SUNNY     90  72  55 S7        29.99S HX  96
ST PETERSBURG  SUNNY     84  71  65 SE6       29.97S
SARASOTA       SUNNY     87  71  58 VRB7      29.98S
VENICE         NOT AVBL

STATION/POSITION SKY/WX   TEMP    WIND        PRES    WAVE   SWELL
                          AIR SEA DIR/SP/G            HT/PER HT/PER
                          (F)     (DEG/KT/KT) (MB)    (FT/S) (FT/S)
27.3N   84.2W                 83                N/A     1
CLEARWATER BEACH           81 82  330/  5/  7 1015.5R
MIDDLE TAMPA BAY           82     180/  1/  2 1015.9R
VENICE                     81 82  270/  6/  7 1015.3S

$$
FLZ066-069-070-075>078-162-262-165-265-311700-
SOUTHWEST FLORIDA AND KEYS

CITY           SKY/WX    TMP DP  RH WIND       PRES   REMARKS
PUNTA GORDA    MOSUNNY   88  67  49 CALM      30.00S
FT MYERS       SUNNY     86  68  54 MISG      29.98S
SOUTHWEST INTL MOSUNNY   87  67  51 CALM      29.99R
NAPLES         MOSUNNY   88  68  51 CALM      29.98S
MARCO ISLAND   SUNNY     88  66  48 NE7       29.99S
MARATHON       CLOUDY    84  70  62 N3        29.97F
KEY WEST NAS   MOSUNNY   82  74  76 N6        29.98R
KEY WEST INTL  PTSUNNY   84  73  69 NE6       29.98R

STATION/POSITION SKY/WX   TEMP    WIND        PRES    WAVE   SWELL
                          AIR SEA DIR/SP/G            HT/PER HT/PER
                          (F)     (DEG/KT/KT) (MB)    (FT/S) (FT/S)
NAPLES                        84              1015.2R
26.0N   85.6W              80 82   80/  8/ 10 1015.5R   1
DRY TORTUGAS               82      70/  7/  7 1015.6R
SAND KEY                   81      30/  2/  3 1015.5R
LONG KEY                   83 87   CALM  /  1 1015.2F

$$
FLZ067-068-071>074-168-172>174-311700-
SOUTHEAST FLORIDA

CITY           SKY/WX    TMP DP  RH WIND       PRES   REMARKS
W PALM BEACH   PTSUNNY   87  71  58 E10       29.99S
BOCA RATON     MOSUNNY   86  73  66 E9        29.98S
FT LAUDER-EXEC MOSUNNY   87  68  52 NE8       29.97F
FT LAUDERDALE  MOSUNNY   86  71  60 E10       29.97S THUNDER
POMPANO BEACH  SUNNY     85  73  67 E8        29.98S
PEMBROKE PINES HVY RAIN  75  66  73 W17G33    30.00R VSB 1
OPA LOCKA      TSTM      81  71  71 N3        29.99R
MIAMI          TSTM      79  68  69 SE10      29.99R
WEST KENDALL   HVY RAIN  75  69  81 S7G23     29.98R
HOMESTEAD      MOSUNNY   87  70  58 VRB6      29.97S

STATION/POSITION SKY/WX   TEMP    WIND        PRES    WAVE   SWELL
                          AIR SEA DIR/SP/G            HT/PER HT/PER
                          (F)     (DEG/KT/KT) (MB)    (FT/S) (FT/S)
PORT EVERGLADES            82      50/  7/  9 1015.3R
VIRGINIA KEY               81 84   80/  6/  8 1015.5R
LAKE WORTH                 81 83   50/  6/  7 1015.3S
FOWEY ROCKS                81 84   30/  6/  7 1015.8F
SETTLEMENT POINT           82      30/  3/  3 1016.4R

$$





USA.gov is the U.S. government's official web portal to all federal, state and local government web resources and services.